Location: El Bakhil
(32.7726°N, 5.5387°W)
Time: 19:48:14
(UTC+00:00)

Envisat - Pass Details

Date: 07 December 2021
Orbit: 764 x 766 km, 98.2° (Epoch: 18 January)

Event Time Altitude Azimuth Distance (km) Brightness Sun altitude
Rises 05:23:16 0° 10° (N) 3,235 6.2 -22.2°
Reaches altitude 10° 05:25:35 10° 9° (N) 2,305 5.4 -21.7°
Maximum altitude 05:30:39 79° 284° (WNW) 783 2.8 -20.7°
Drops below altitude 10° 05:35:42 10° 198° (SSW) 2,291 5.4 -19.6°
Sets 05:38:00 0° 197° (SSW) 3,213 6.2 -19.2°
